Regional Weather Roundup
Issued by NWS

Home | Current Version | Previous Version | Text Only | Print | Product List | Glossary Off
Versions: 1 2 3 4 5 6 7 8 9 10 11 12 13 14 15 16 17 18 19 20 21 22 23 24 25 26 27 28 29 30 31 32 33 34 35 36 37 38 39 40 41 42 43 44 45 46 47 48 49 50

000
ASUS43 KOAX 020610
RWRNE
WEATHER ROUNDUP FOR NEBRASKA
NATIONAL WEATHER SERVICE OMAHA NE
100 AM CDT TUE JUN 02 2015

NOTES: SATELLITE DATA IS BEING USED TO AUGMENT CLOUD COVER ABOVE
       12000 FEET.
       "FAIR" INDICATES FEW OR NO CLOUDS BELOW 12,000 FEET WITH NO
       SIGNIFICANT WEATHER AND/OR OBSTRUCTIONS TO VISIBILITY.

  * THESE STATIONS DO NOT REPORT WEATHER SUCH AS RAIN...SNOW OR FOG.

NEZ001>004-019>022-054>056-020700-
NEBRASKA PANHANDLE

CITY           SKY/WX    TMP DP  RH WIND       PRES   REMARKS
SCOTTSBLUFF    CLOUDY    60  55  83 NE3       29.98R
6HR MIN TEMP:  59; 6HR MAX TEMP:  72; 6HR PCP: TRACE;

ALLIANCE       CLOUDY    60  56  86 S8        29.94R
6HR MIN TEMP:  60; 6HR MAX TEMP:  73; 6HR PCP:  0.37;

CHADRON        CLOUDY    67  52  58 S12       29.89F
6HR MIN TEMP:  66; 6HR MAX TEMP:  77;

KIMBALL          N/A    N/A N/A N/A MISG        N/A
SIDNEY         CLOUDY    58  55  90 S9        30.01R THUNDER
6HR MIN TEMP:  55; 6HR MAX TEMP:  76; 6HR PCP:  0.92;

$$

NEZ057>060-069>072-079>082-020700-
SOUTHWEST NEBRASKA

CITY           SKY/WX    TMP DP  RH WIND       PRES   REMARKS
NORTH PLATTE   LGT RAIN  63  57  81 NW9       30.02F
6HR MIN TEMP:  61; 6HR MAX TEMP:  76; 6HR PCP:  0.32;

IMPERIAL       TSTM      59  57  93 S7        30.05R
6HR MIN TEMP:  59; 6HR MAX TEMP:  81; 6HR PCP:  0.81;

LEXINGTON      CLOUDY    64  59  85 S10       30.01R
MCCOOK         CLOUDY    66  56  70 N16G31    30.04R THUNDER
6HR MIN TEMP:  66; 6HR MAX TEMP:  81;

OGALLALA       CLOUDY    63  57  82 E10       29.97F
$$

NEZ005>010-023>029-035>040-094-020700-
NORTH CENTRAL NEBRASKA

CITY           SKY/WX    TMP DP  RH WIND       PRES   REMARKS
VALENTINE      CLOUDY    67  60  78 S15G25    29.87F
6HR MIN TEMP:  67; 6HR MAX TEMP:  80;

AINSWORTH      CLOUDY    65  60  84 S18G24    29.91F
BROKEN BOW     CLOUDY    64  59  83 SW12      30.04R
6HR MIN TEMP:  63; 6HR MAX TEMP:  74;

O`NEILL        CLOUDY    65  59  79 S13       29.97F
ORD            CLOUDY    64  57  78 SE8       29.99S
6HR MIN TEMP:  63; 6HR MAX TEMP:  74;

THEDFORD       LGT RAIN  67  58  70 SW17G24   29.94F
$$

NEZ041-046>049-061>064-073>077-083>087-020700-
SOUTH CENTRAL NEBRASKA

CITY           SKY/WX    TMP DP  RH WIND       PRES   REMARKS
GRAND ISLAND   MOCLDY    65  55  70 S14       30.02F
6HR MIN TEMP:  65; 6HR MAX TEMP:  73;

AURORA         MOCLDY    63  56  77 S12       30.03S
HASTINGS       CLOUDY    64  55  72 S14       30.02F
6HR MIN TEMP:  64; 6HR MAX TEMP:  72;

HEBRON         MOCLDY    62  56  79 SE10      30.05S
HOLDREGE       CLOUDY    62  57  85 SE14      30.00F
KEARNEY *      CLOUDY    63  55  77 S12       30.01F
YORK           CLOUDY    63  55  77 S16       30.03F
$$

NEZ011>018-030>034-042>045-020700-
NORTHEAST NEBRASKA

CITY           SKY/WX    TMP DP  RH WIND       PRES   REMARKS
NORFOLK        MOCLDY    63  53  70 S13       30.01F
6HR MIN TEMP:  63; 6HR MAX TEMP:  76;

ALBION         CLOUDY    64  54  68 S12G17    30.01S
BLAIR          CLEAR     61  52  73 S9        30.06F
COLUMBUS *     MOCLDY    63  52  67 S10       30.05S
FREMONT        PTCLDY    63  54  72 SE13      30.05F
TEKAMAH        CLEAR     61  51  70 S10       30.05F
6HR MIN TEMP:  61; 6HR MAX TEMP:  76;

WAYNE          PTCLDY    62  53  72 S14       30.02F
$$

NEZ050>053-065>068-078-088>093-020700-
SOUTHEAST NEBRASKA

CITY           SKY/WX    TMP DP  RH WIND       PRES   REMARKS
LINCOLN        PTCLDY    61  55  81 S12       30.05F
6HR MIN TEMP:  61; 6HR MAX TEMP:  74;

OMAHA EPPLEY   PTCLDY    62  54  74 S10       30.08S
6HR MIN TEMP:  62; 6HR MAX TEMP:  74;

BEATRICE       PTCLDY    59  55  85 SE12      30.06F
FALLS CITY     CLEAR     56  52  86 SE9       30.10F
6HR MIN TEMP:  55; 6HR MAX TEMP:  70;

NEBRASKA CITY  CLEAR     57  52  82 S8        30.09F
PLATTSMOUTH    CLEAR     59  53  80 S8        30.08F
$$

NEZ044-045-051>053-067-020700-
OMAHA AREA

CITY           SKY/WX    TMP DP  RH WIND       PRES   REMARKS
OMAHA EPPLEY   PTCLDY    62  54  74 S10       30.08S
6HR MIN TEMP:  62; 6HR MAX TEMP:  74;

BLAIR          CLEAR     61  52  73 S9        30.06F
FREMONT        PTCLDY    63  54  72 SE13      30.05F
MILLARD        CLEAR     62  55  78 SE6       30.07F
OFFUTT AFB     CLEAR     59  54  84 SE8       30.07F
PLATTSMOUTH    CLEAR     59  53  80 S8        30.08F
WAHOO          FAIR      61  55  78 SE13      30.05F
$$



USA.gov is the U.S. government's official web portal to all federal, state and local government web resources and services.